sat.trackr.live / text

‹ back to catalog

ORBCOMM FM32

NORAD 25982 · 1999-065C

PAYLOAD ACTIVE UNKNOWN

§ Identity

Operator
Country
ORB
Launch date
1999-12-04
Launch site
ERAS
Launch vehicle
Mass (kg)
RCS (m²)
0.85

Purposes: comms

External: N2YO · Heavens-Above · Gunter

§ Orbital elements

Epoch: 2026-09-19T03:11:19.723488Z

Period
100.19 min
Inclination
45.0145°
Eccentricity
0.0006430
Mean motion
14.37243257 rev/d
Perigee alt
763.0 km
Apogee alt
772.2 km
Semi-major
7,145.8 km
B*
1.7791e-4
RAAN
88.5159°
Arg perigee
161.7222°
Mean anomaly
198.3858°
Rev number
40,060

§ Raw data

ORBCOMM FM321 25982U 99065C   26262.13286717  .00000393  00000+0  17791-3 0  99902 25982  45.0145  88.5159 0006430 161.7222 198.3858 14.37243257400607

JSON: /api/v1/satellites/25982 · /tle

For live sub-satellite position, see the globe view (requires WebGL).

§ Visibility from observer

Set your observer location to see the next 7 days of passes ≥ 10°. The values pass through the URL so the page stays shareable.

No JS? Fill the form by hand. The geolocation button needs JavaScript.